,,,PA_Meas_PMT16A,,PR_Meas_QMR101_102,,RH_Meas_QMH101,,SR_Meas_QMS101,,TA_Meas_QMH101,,GenWind,,GenWind,
date,time,status,PA,status,PR,status,RH,status,SR,status,TA,status,DirAvg,status,SpdAvg,
2012-12-28, 00:00:04,VALID,1006.47,VALID,0,VALID,104,VALID,0,VALID,24.9218,VALID,188,VALID,0,
2012-12-28, 00:01:04,VALID,1006.47,VALID,0,VALID,104,VALID,0,VALID,24.9413,VALID,189,VALID,0.112109,
2012-12-28, 00:02:04,VALID,1006.46,VALID,0,VALID,104,VALID,0,VALID,24.9199,VALID,188,VALID,0.0847656,
2012-12-28, 00:03:04,VALID,1006.43,VALID,0,VALID,104,VALID,0,VALID,24.9394,VALID,189,VALID,0.367578,
2012-12-28, 00:04:04,VALID,1006.41,VALID,0,VALID,104,VALID,0,VALID,24.9608,VALID,189,VALID,0,
2012-12-28, 00:05:04,VALID,1006.39,VALID,0,VALID,104,VALID,0,VALID,24.9998,VALID,189,VALID,0.135547,
2012-12-28, 00:06:04,VALID,1006.37,VALID,0,VALID,104,VALID,0,VALID,25.0388,VALID,189,VALID,0.0714844,
2012-12-28, 00:07:04,VALID,1006.39,VALID,0,VALID,104,VALID,0,VALID,24.9803,VALID,189,VALID,0.0367187,
2012-12-28, 00:08:04,VALID,1006.38,VALID,0,VALID,104,VALID,0,VALID,24.9803,VALID,189,VALID,0.00429688,
2012-12-28, 00:09:04,VALID,1006.36,VALID,0,VALID,104,VALID,0,VALID,24.9998,VALID,189,VALID,0.0785156,
2012-12-28, 00:10:04,VALID,1006.35,VALID,0,VALID,104,VALID,0,VALID,24.9803,VALID,189,VALID,0.229687,
2012-12-28, 00:11:04,VALID,1006.33,VALID,0,VALID,104,VALID,0,VALID,24.9803,VALID,189,VALID,0.0417969,
2012-12-28, 00:12:04,VALID,1006.32,VALID,0,VALID,104,VALID,0,VALID,25.0388,VALID,189,VALID,0.233984,
2012-12-28, 00:13:04,VALID,1006.28,VALID,0,VALID,104,VALID,0,VALID,24.9803,VALID,189,VALID,0.299609,
2012-12-28, 00:14:04,VALID,1006.29,VALID,0,VALID,104,VALID,0,VALID,24.9803,VALID,189,VALID,0.103516,
2012-12-28, 00:15:04,VALID,1006.27,VALID,0,VALID,104,VALID,0,VALID,24.9394,VALID,189,VALID,0.229687,
2012-12-28, 00:16:04,VALID,1006.23,VALID,0,VALID,104,VALID,0,VALID,25.0212,VALID,189,VALID,0,
2012-12-28, 00:17:04,VALID,1006.2,VALID,0,VALID,104,VALID,0,VALID,24.9608,VALID,189,VALID,0,
2012-12-28, 00:18:04,VALID,1006.16,VALID,0,VALID,104,VALID,0,VALID,24.9413,VALID,189,VALID,0,
2012-12-28, 00:19:04,VALID,1006.17,VALID,0,VALID,104,VALID,0,VALID,24.9413,VALID,189,VALID,0,
2012-12-28, 00:20:04,VALID,1006.14,VALID,0,VALID,104,VALID,0,VALID,24.9413,VALID,189,VALID,0.222656,
2012-12-28, 00:21:04,VALID,1006.13,VALID,0,VALID,104,VALID,0,VALID,24.9218,VALID,189,VALID,0.312891,
2012-12-28, 00:22:04,VALID,1006.12,VALID,0,VALID,104,VALID,0,VALID,24.9023,VALID,189,VALID,0.430469,
2012-12-28, 00:23:04,VALID,1006.13,VALID,0,VALID,104,VALID,0,VALID,24.8828,VALID,189,VALID,0.534375,
2012-12-28, 00:24:04,VALID,1006.1,VALID,0,VALID,104,VALID,0,VALID,24.8438,VALID,189,VALID,0.493359,
2012-12-28, 00:25:04,VALID,1006.1,VALID,0,VALID,104,VALID,0,VALID,24.7659,VALID,189,VALID,0.266406,
2012-12-28, 00:26:04,VALID,1006.1,VALID,0,VALID,104,VALID,0,VALID,24.7269,VALID,189,VALID,0.232422,
2012-12-28, 00:27:04,VALID,1006.07,VALID,0,VALID,104,VALID,0,VALID,24.7074,VALID,189,VALID,0.270703,
2012-12-28, 00:28:04,VALID,1006.05,VALID,0,VALID,104,VALID,0,VALID,24.6684,VALID,189,VALID,0.128516,
2012-12-28, 00:29:04,VALID,1006.06,VALID,0,VALID,104,VALID,0,VALID,24.6489,VALID,189,VALID,0,
2012-12-28, 00:30:04,VALID,1006.04,VALID,0,VALID,104,VALID,0,VALID,24.6099,VALID,189,VALID,0,
2012-12-28, 00:31:04,VALID,1006.06,VALID,0,VALID,104,VALID,0.112112,VALID,24.5886,VALID,189,VALID,0,
2012-12-28, 00:32:04,VALID,1006.08,VALID,0,VALID,104,VALID,0.112112,VALID,24.5301,VALID,189,VALID,0.00195313,
2012-12-28, 00:33:04,VALID,1006.07,VALID,0,VALID,104,VALID,0,VALID,24.5106,VALID,189,VALID,0.552344,
2012-12-28, 00:34:04,VALID,1006.09,VALID,0,VALID,104,VALID,0.112112,VALID,24.4911,VALID,58,VALID,0.855469,
2012-12-28, 00:35:04,VALID,1006.07,VALID,0,VALID,104,VALID,0.112112,VALID,24.4522,VALID,53,VALID,0.769922,
2012-12-28, 00:36:04,VALID,1006.07,VALID,0,VALID,104,VALID,0.112112,VALID,24.4503,VALID,36,VALID,1.31797,
2012-12-28, 00:37:04,VALID,1006.1,VALID,0,VALID,104,VALID,0.112112,VALID,24.4522,VALID,36,VALID,1.03242,
2012-12-28, 00:38:04,VALID,1006.08,VALID,0,VALID,104,VALID,0.112112,VALID,24.4717,VALID,50,VALID,1.04336,
2012-12-28, 00:39:04,VALID,1006.1,VALID,0,VALID,104,VALID,0.112112,VALID,24.4522,VALID,44,VALID,0.716016,
2012-12-28, 00:40:04,VALID,1006.09,VALID,0,VALID,104,VALID,0.112112,VALID,24.4735,VALID,64,VALID,1.0082,
2012-12-28, 00:41:04,VALID,1006.08,VALID,0,VALID,104,VALID,0.112112,VALID,24.4698,VALID,59,VALID,1.13008,
2012-12-28, 00:42:04,VALID,1006.11,VALID,0,VALID,104,VALID,0.112112,VALID,24.4503,VALID,52,VALID,0.857031,
2012-12-28, 00:43:04,VALID,1006.1,VALID,0,VALID,104,VALID,0.112112,VALID,24.4522,VALID,52,VALID,0.555078,
2012-12-28, 00:44:04,VALID,1006.11,VALID,0,VALID,104,VALID,0.112112,VALID,24.4327,VALID,55,VALID,0.817187,
2012-12-28, 00:45:04,VALID,1006.13,VALID,0,VALID,104,VALID,0.112112,VALID,24.4132,VALID,29,VALID,1.30313,
2012-12-28, 00:46:04,VALID,1006.14,VALID,0,VALID,104,VALID,0,VALID,24.3761,VALID,43,VALID,1.51016,
2012-12-28, 00:47:04,VALID,1006.16,VALID,0,VALID,104,VALID,0,VALID,24.3761,VALID,45,VALID,1.28672,
2012-12-28, 00:48:04,VALID,1006.16,VALID,0,VALID,104,VALID,0,VALID,24.3176,VALID,41,VALID,0.733594,
2012-12-28, 00:49:04,VALID,1006.16,VALID,0,VALID,104,VALID,0,VALID,24.2981,VALID,59,VALID,0.971094,
2012-12-28, 00:50:04,VALID,1006.14,VALID,0,VALID,104,VALID,0,VALID,24.3176,VALID,58,VALID,0.4875,
2012-12-28, 00:51:04,VALID,1006.14,VALID,0,VALID,104,VALID,0,VALID,24.2786,VALID,58,VALID,0.591797,
2012-12-28, 00:52:04,VALID,1006.18,VALID,0,VALID,104,VALID,0,VALID,24.1617,VALID,55,VALID,1.24883,
2012-12-28, 00:53:04,VALID,1006.13,VALID,0,VALID,104,VALID,0,VALID,24.2396,VALID,38,VALID,1.00508,
2012-12-28, 00:54:04,VALID,1006.13,VALID,0,VALID,104,VALID,0,VALID,24.2007,VALID,41,VALID,0.551172,
2012-12-28, 00:55:04,VALID,1006.11,VALID,0,VALID,104,VALID,0,VALID,24.1812,VALID,40,VALID,0.352734,
2012-12-28, 00:56:04,VALID,1006.11,VALID,0,VALID,104,VALID,0,VALID,24.1793,VALID,65,VALID,0.835547,
2012-12-28, 00:57:04,VALID,1006.08,VALID,0,VALID,104,VALID,0,VALID,24.2007,VALID,78,VALID,0.730078,
2012-12-28, 00:58:04,VALID,1006.09,VALID,0,VALID,104,VALID,0,VALID,24.1812,VALID,70,VALID,0.575781,
2012-12-28, 00:59:04,VALID,1006.07,VALID,0,VALID,104,VALID,0,VALID,24.1422,VALID,62,VALID,0.470313,
2012-12-28, 01:00:04,VALID,1006.06,VALID,0,VALID,104,VALID,0,VALID,24.1422,VALID,62,VALID,0.415625,
2012-12-28, 01:01:04,VALID,1006.05,VALID,0,VALID,104,VALID,0,VALID,24.1422,VALID,62,VALID,0.254687,
2012-12-28, 01:02:04,VALID,1006.06,VALID,0,VALID,104,VALID,0,VALID,24.1617,VALID,62,VALID,0.38125,
2012-12-28, 01:03:04,VALID,1006.04,VALID,0,VALID,104,VALID,0.112112,VALID,24.1014,VALID,48,VALID,0.639063,
2012-12-28, 01:04:04,VALID,1006.05,VALID,0,VALID,104,VALID,0,VALID,24.1032,VALID,48,VALID,0.421484,
2012-12-28, 01:05:04,VALID,1006.02,VALID,0,VALID,104,VALID,0,VALID,24.1014,VALID,48,VALID,0.260938,
2012-12-28, 01:06:04,VALID,1006.06,VALID,0,VALID,104,VALID,0,VALID,24.1032,VALID,48,VALID,0.216406,
2012-12-28, 01:07:04,VALID,1006.05,VALID,0,VALID,104,VALID,0,VALID,24.0235,VALID,48,VALID,0.296875,
2012-12-28, 01:08:04,VALID,1006.05,VALID,0,VALID,104,VALID,0.112112,VALID,24.0643,VALID,48,VALID,0.266016,
2012-12-28, 01:09:04,VALID,1006.06,VALID,0,VALID,104,VALID,0,VALID,24.0643,VALID,48,VALID,0.583594,
2012-12-28, 01:10:04,VALID,1006.04,VALID,0,VALID,104,VALID,0,VALID,24.1032,VALID,48,VALID,0.432813,
2012-12-28, 01:11:04,VALID,1006.03,VALID,0,VALID,104,VALID,0,VALID,24.0643,VALID,48,VALID,0.658594,
2012-12-28, 01:12:04,VALID,1006.02,VALID,0,VALID,104,VALID,0,VALID,24.0253,VALID,48,VALID,0.298438,
2012-12-28, 01:13:04,VALID,1006.02,VALID,0,VALID,104,VALID,0,VALID,24.0448,VALID,48,VALID,0.228906,
2012-12-28, 01:14:04,VALID,1006.03,VALID,0,VALID,104,VALID,0,VALID,24.0253,VALID,48,VALID,0.401563,
2012-12-28, 01:15:04,VALID,1006.03,VALID,0,VALID,104,VALID,0,VALID,24.0429,VALID,48,VALID,0.334766,
2012-12-28, 01:16:04,VALID,1006,VALID,0,VALID,104,VALID,0,VALID,24.0253,VALID,48,VALID,0.535937,
2012-12-28, 01:17:04,VALID,1006,VALID,0,VALID,104,VALID,0,VALID,24.0253,VALID,48,VALID,0.308203,
2012-12-28, 01:18:04,VALID,1006,VALID,0,VALID,104,VALID,0,VALID,24.004,VALID,48,VALID,0.430078,
2012-12-28, 01:19:04,VALID,1005.96,VALID,0,VALID,104,VALID,0,VALID,24.0837,VALID,77,VALID,0.969141,
2012-12-28, 01:20:04,VALID,1005.95,VALID,0,VALID,104,VALID,0,VALID,24.0448,VALID,78,VALID,0.807813,
2012-12-28, 01:21:04,VALID,1005.94,VALID,0,VALID,104,VALID,0,VALID,24.0253,VALID,78,VALID,0.561328,
2012-12-28, 01:22:04,VALID,1005.95,VALID,0,VALID,104,VALID,0,VALID,24.004,VALID,63,VALID,0.602344,
2012-12-28, 01:23:04,VALID,1005.96,VALID,0,VALID,104,VALID,0,VALID,24.0253,VALID,63,VALID,0.550391,
2012-12-28, 01:24:04,VALID,1005.97,VALID,0,VALID,104,VALID,0,VALID,24.0448,VALID,63,VALID,0.413672,
2012-12-28, 01:25:04,VALID,1005.96,VALID,0,VALID,104,VALID,0,VALID,24.004,VALID,64,VALID,0.719922,
2012-12-28, 01:26:04,VALID,1005.93,VALID,0,VALID,104,VALID,0,VALID,23.9863,VALID,74,VALID,0.409375,
2012-12-28, 01:27:04,VALID,1005.95,VALID,0,VALID,104,VALID,0.112112,VALID,24.004,VALID,74,VALID,0.162109,
2012-12-28, 01:28:04,VALID,1005.92,VALID,0,VALID,104,VALID,0,VALID,24.0253,VALID,74,VALID,0.536328,
2012-12-28, 01:29:04,VALID,1005.92,VALID,0,VALID,104,VALID,0,VALID,23.9863,VALID,81,VALID,0.701172,
2012-12-28, 01:30:04,VALID,1005.89,VALID,0,VALID,104,VALID,0,VALID,23.9845,VALID,81,VALID,0.649219,
2012-12-28, 01:31:04,VALID,1005.91,VALID,0,VALID,104,VALID,0,VALID,24.004,VALID,83,VALID,0.592188,
2012-12-28, 01:32:04,VALID,1005.88,VALID,0,VALID,104,VALID,0,VALID,23.9863,VALID,78,VALID,0.612109,
2012-12-28, 01:33:04,VALID,1005.86,VALID,0,VALID,104,VALID,0,VALID,23.9668,VALID,78,VALID,0.236328,
2012-12-28, 01:34:04,VALID,1005.85,VALID,0,VALID,104,VALID,0,VALID,23.9863,VALID,78,VALID,0.398828,
2012-12-28, 01:35:04,VALID,1005.87,VALID,0,VALID,104,VALID,0,VALID,23.9668,VALID,78,VALID,0.415625,
2012-12-28, 01:36:04,VALID,1005.81,VALID,0,VALID,104,VALID,0,VALID,23.9863,VALID,78,VALID,0.3,
2012-12-28, 01:37:04,VALID,1005.82,VALID,0,VALID,104,VALID,0,VALID,23.9863,VALID,78,VALID,0.242969,
2012-12-28, 01:38:04,VALID,1005.81,VALID,0,VALID,104,VALID,0,VALID,24.0058,VALID,78,VALID,0.29375,
2012-12-28, 01:39:04,VALID,1005.78,VALID,0,VALID,104,VALID,0,VALID,23.965,VALID,78,VALID,0.282422,
2012-12-28, 01:40:04,VALID,1005.76,VALID,0,VALID,104,VALID,0,VALID,23.9455,VALID,78,VALID,0.179297,
2012-12-28, 01:41:04,VALID,1005.78,VALID,0,VALID,104,VALID,0,VALID,23.9668,VALID,78,VALID,0.246094,
2012-12-28, 01:42:04,VALID,1005.76,VALID,0,VALID,104,VALID,0,VALID,23.9863,VALID,112,VALID,0.525781,
2012-12-28, 01:43:04,VALID,1005.75,VALID,0,VALID,104,VALID,0,VALID,23.9668,VALID,112,VALID,0.619922,
2012-12-28, 01:44:04,VALID,1005.73,VALID,0,VALID,104,VALID,0,VALID,23.926,VALID,112,VALID,0.618359,
2012-12-28, 01:45:04,VALID,1005.75,VALID,0,VALID,104,VALID,0,VALID,23.9065,VALID,112,VALID,0.441406,
2012-12-28, 01:46:04,VALID,1005.72,VALID,0,VALID,104,VALID,0,VALID,23.8871,VALID,112,VALID,0.348828,
2012-12-28, 01:47:04,VALID,1005.71,VALID,0,VALID,104,VALID,0,VALID,23.9278,VALID,112,VALID,0.387891,
2012-12-28, 01:48:04,VALID,1005.7,VALID,0,VALID,104,VALID,0,VALID,23.9278,VALID,178,VALID,0.617969,
2012-12-28, 01:49:04,VALID,1005.71,VALID,0,VALID,104,VALID,0,VALID,23.9278,VALID,200,VALID,0.859766,
2012-12-28, 01:50:04,VALID,1005.67,VALID,0,VALID,104,VALID,0,VALID,23.9084,VALID,196,VALID,0.642187,
2012-12-28, 01:51:04,VALID,1005.69,VALID,0,VALID,104,VALID,0,VALID,23.9278,VALID,193,VALID,0.809766,
2012-12-28, 01:52:04,VALID,1005.65,VALID,0,VALID,104,VALID,0,VALID,23.8889,VALID,196,VALID,0.905859,
2012-12-28, 01:53:04,VALID,1005.66,VALID,0,VALID,104,VALID,0,VALID,23.8889,VALID,197,VALID,0.873438,
2012-12-28, 01:54:04,VALID,1005.63,VALID,0,VALID,104,VALID,0,VALID,23.9084,VALID,198,VALID,0.964844,
2012-12-28, 01:55:04,VALID,1005.61,VALID,0,VALID,104,VALID,0,VALID,23.8889,VALID,199,VALID,0.942969,
2012-12-28, 01:56:04,VALID,1005.6,VALID,0,VALID,104,VALID,0,VALID,23.8676,VALID,210,VALID,0.654297,
2012-12-28, 01:57:04,VALID,1005.58,VALID,0,VALID,104,VALID,0,VALID,23.9084,VALID,207,VALID,0.482422,
2012-12-28, 01:58:04,VALID,1005.61,VALID,0,VALID,104,VALID,0,VALID,23.9278,VALID,207,VALID,0.500391,
2012-12-28, 01:59:04,VALID,1005.59,VALID,0,VALID,104,VALID,0,VALID,23.9084,VALID,214,VALID,0.774609,
2012-12-28, 02:00:04,VALID,1005.58,VALID,0,VALID,104,VALID,0,VALID,23.9863,VALID,214,VALID,0.498437,
2012-12-28, 02:01:04,VALID,1005.57,VALID,0,VALID,104,VALID,0,VALID,23.9863,VALID,214,VALID,0.435547,
2012-12-28, 02:02:04,VALID,1005.55,VALID,0,VALID,104,VALID,0,VALID,24.0058,VALID,214,VALID,0.455078,
2012-12-28, 02:03:04,VALID,1005.51,VALID,0,VALID,104,VALID,0,VALID,24.0271,VALID,214,VALID,0.146484,
2012-12-28, 02:04:04,VALID,1005.49,VALID,0,VALID,104,VALID,0,VALID,24.0253,VALID,213,VALID,0.36875,
2012-12-28, 02:05:04,VALID,1005.49,VALID,0,VALID,104,VALID,0,VALID,24.0058,VALID,214,VALID,0.159375,
2012-12-28, 02:06:04,VALID,1005.49,VALID,0,VALID,104,VALID,0,VALID,24.0448,VALID,214,VALID,0.452734,
2012-12-28, 02:07:04,VALID,1005.44,VALID,0,VALID,104,VALID,0.112112,VALID,23.9473,VALID,214,VALID,0.307813,
2012-12-28, 02:08:04,VALID,1005.44,VALID,0,VALID,104,VALID,0,VALID,24.0253,VALID,214,VALID,0.315625,
2012-12-28, 02:09:04,VALID,1005.4,VALID,0,VALID,104,VALID,0,VALID,24.0253,VALID,213,VALID,0.439844,
2012-12-28, 02:10:04,VALID,1005.37,VALID,0,VALID,104,VALID,0,VALID,24.0271,VALID,213,VALID,0.359766,
2012-12-28, 02:11:04,VALID,1005.36,VALID,0,VALID,104,VALID,0,VALID,24.0253,VALID,214,VALID,0.292578,
2012-12-28, 02:12:04,VALID,1005.4,VALID,0,VALID,104,VALID,0,VALID,24.0253,VALID,214,VALID,0.352344,
2012-12-28, 02:13:04,VALID,1005.41,VALID,0,VALID,104,VALID,0,VALID,23.9863,VALID,214,VALID,0.217187,
2012-12-28, 02:14:04,VALID,1005.37,VALID,0,VALID,104,VALID,0,VALID,24.0058,VALID,215,VALID,0.709375,
2012-12-28, 02:15:04,VALID,1005.35,VALID,0,VALID,104,VALID,0,VALID,24.0058,VALID,215,VALID,0.702344,
2012-12-28, 02:16:04,VALID,1005.37,VALID,0,VALID,104,VALID,0,VALID,24.0253,VALID,214,VALID,0.563281,
2012-12-28, 02:17:04,VALID,1005.36,VALID,0,VALID,104,VALID,0,VALID,24.004,VALID,214,VALID,0.385547,
2012-12-28, 02:18:04,VALID,1005.32,VALID,0,VALID,104,VALID,0,VALID,24.0058,VALID,214,VALID,0.253906,
2012-12-28, 02:19:04,VALID,1005.31,VALID,0,VALID,104,VALID,0,VALID,23.9863,VALID,214,VALID,0.551562,
2012-12-28, 02:20:04,VALID,1005.26,VALID,0,VALID,104,VALID,0,VALID,24.0058,VALID,214,VALID,0.439844,
2012-12-28, 02:21:04,VALID,1005.26,VALID,0,VALID,104,VALID,0,VALID,23.9668,VALID,168,VALID,0.495703,
2012-12-28, 02:22:04,VALID,1005.23,VALID,0,VALID,104,VALID,0,VALID,24.0253,VALID,118,VALID,0.611328,
2012-12-28, 02:23:04,VALID,1005.23,VALID,0,VALID,104,VALID,0,VALID,23.9668,VALID,116,VALID,0.320703,
2012-12-28, 02:24:04,VALID,1005.22,VALID,0,VALID,104,VALID,0,VALID,24.0058,VALID,115,VALID,0.159766,
2012-12-28, 02:25:04,VALID,1005.24,VALID,0,VALID,104,VALID,0,VALID,24.0253,VALID,117,VALID,0.0800781,
2012-12-28, 02:26:04,VALID,1005.27,VALID,0,VALID,104,VALID,0,VALID,24.0253,VALID,116,VALID,0.1375,
2012-12-28, 02:27:04,VALID,1005.28,VALID,0,VALID,104,VALID,0,VALID,24.0253,VALID,116,VALID,0.292188,
2012-12-28, 02:28:04,VALID,1005.3,VALID,0,VALID,104,VALID,0,VALID,24.0253,VALID,116,VALID,0.423438,
2012-12-28, 02:29:04,VALID,1005.33,VALID,0,VALID,104,VALID,0,VALID,23.9845,VALID,116,VALID,0.189453,
2012-12-28, 02:30:04,VALID,1005.32,VALID,0,VALID,104,VALID,0,VALID,23.9668,VALID,99,VALID,0.614453,
2012-12-28, 02:31:04,VALID,1005.32,VALID,0,VALID,104,VALID,0,VALID,24.0253,VALID,94,VALID,0.578906,
2012-12-28, 02:32:04,VALID,1005.32,VALID,0,VALID,104,VALID,0,VALID,24.0448,VALID,94,VALID,0.249219,
2012-12-28, 02:33:04,VALID,1005.31,VALID,0,VALID,104,VALID,0,VALID,24.0624,VALID,94,VALID,0.105469,
2012-12-28, 02:34:04,VALID,1005.33,VALID,0,VALID,104,VALID,0,VALID,24.0448,VALID,95,VALID,0.139062,
2012-12-28, 02:35:04,VALID,1005.32,VALID,0,VALID,104,VALID,0,VALID,24.0448,VALID,93,VALID,0.403125,
2012-12-28, 02:36:04,VALID,1005.36,VALID,0,VALID,104,VALID,0,VALID,24.0253,VALID,94,VALID,0.557422,
2012-12-28, 02:37:04,VALID,1005.34,VALID,0,VALID,104,VALID,0,VALID,24.0058,VALID,94,VALID,0.179688,
2012-12-28, 02:38:04,VALID,1005.34,VALID,0,VALID,104,VALID,0,VALID,24.0253,VALID,95,VALID,0.458984,
2012-12-28, 02:39:04,VALID,1005.36,VALID,0,VALID,104,VALID,0,VALID,23.9863,VALID,84,VALID,0.674609,
2012-12-28, 02:40:04,VALID,1005.36,VALID,0,VALID,104,VALID,0,VALID,23.9668,VALID,77,VALID,0.615625,
2012-12-28, 02:41:04,VALID,1005.38,VALID,0,VALID,104,VALID,0,VALID,23.9863,VALID,71,VALID,0.694922,
2012-12-28, 02:42:04,VALID,1005.36,VALID,0,VALID,104,VALID,0,VALID,23.9278,VALID,54,VALID,0.775391,
2012-12-28, 02:43:04,VALID,1005.34,VALID,0,VALID,104,VALID,0,VALID,23.9084,VALID,54,VALID,0.682422,
2012-12-28, 02:44:04,VALID,1005.33,VALID,0,VALID,104,VALID,0,VALID,23.9084,VALID,31,VALID,0.905078,
2012-12-28, 02:45:04,VALID,1005.31,VALID,0,VALID,104,VALID,0,VALID,23.8889,VALID,30,VALID,0.38125,
2012-12-28, 02:46:04,VALID,1005.31,VALID,0,VALID,104,VALID,0,VALID,23.8871,VALID,30,VALID,0.620703,
2012-12-28, 02:47:04,VALID,1005.27,VALID,0,VALID,104,VALID,0,VALID,23.8286,VALID,30,VALID,0.46875,
2012-12-28, 02:48:04,VALID,1005.27,VALID,0,VALID,104,VALID,0,VALID,23.8481,VALID,30,VALID,0.729688,
2012-12-28, 02:49:04,VALID,1005.29,VALID,0,VALID,104,VALID,0,VALID,23.8304,VALID,56,VALID,0.735547,
2012-12-28, 02:50:04,VALID,1005.26,VALID,0,VALID,104,VALID,0,VALID,23.8304,VALID,59,VALID,0.765234,
2012-12-28, 02:51:04,VALID,1005.26,VALID,0,VALID,104,VALID,0,VALID,23.8109,VALID,84,VALID,0.696875,
2012-12-28, 02:52:04,VALID,1005.24,VALID,0,VALID,104,VALID,0,VALID,23.8304,VALID,103,VALID,0.860547,
2012-12-28, 02:53:04,VALID,1005.25,VALID,0,VALID,104,VALID,0,VALID,23.8499,VALID,92,VALID,0.889063,
2012-12-28, 02:54:04,VALID,1005.26,VALID,0,VALID,104,VALID,0,VALID,23.8304,VALID,71,VALID,0.811719,
2012-12-28, 02:55:04,VALID,1005.29,VALID,0,VALID,104,VALID,0,VALID,23.8499,VALID,80,VALID,0.358203,
2012-12-28, 02:56:04,VALID,1005.3,VALID,0,VALID,104,VALID,0,VALID,23.8304,VALID,14,VALID,1.23086,
2012-12-28, 02:57:04,VALID,1005.29,VALID,0,VALID,104,VALID,0,VALID,23.8109,VALID,19,VALID,1.01289,
2012-12-28, 02:58:04,VALID,1005.29,VALID,0,VALID,104,VALID,0,VALID,23.8304,VALID,14,VALID,0.402734,
2012-12-28, 02:59:04,VALID,1005.26,VALID,0,VALID,104,VALID,0,VALID,23.6356,VALID,30,VALID,0.524219,
2012-12-28, 03:00:04,VALID,1005.26,VALID,0,VALID,104,VALID,0,VALID,23.7896,VALID,30,VALID,0.290625,
2012-12-28, 03:01:04,VALID,1005.25,VALID,0,VALID,104,VALID,0,VALID,23.7896,VALID,51,VALID,0.704687,
2012-12-28, 03:02:04,VALID,1005.26,VALID,0,VALID,104,VALID,0,VALID,23.7701,VALID,55,VALID,1.02109,
2012-12-28, 03:03:04,VALID,1005.24,VALID,0,VALID,104,VALID,0,VALID,23.772,VALID,46,VALID,1.07031,
2012-12-28, 03:04:04,VALID,1005.25,VALID,0,VALID,104,VALID,0,VALID,23.7914,VALID,46,VALID,0.5,
2012-12-28, 03:05:04,VALID,1005.23,VALID,0,VALID,104,VALID,0,VALID,23.7507,VALID,46,VALID,0.161328,
2012-12-28, 03:06:04,VALID,1005.22,VALID,0,VALID,104,VALID,0,VALID,23.772,VALID,46,VALID,0,
2012-12-28, 03:07:04,VALID,1005.21,VALID,0,VALID,104,VALID,0,VALID,23.7312,VALID,46,VALID,0.49375,
2012-12-28, 03:08:04,VALID,1005.22,VALID,0,VALID,104,VALID,0,VALID,23.772,VALID,46,VALID,0.638281,
2012-12-28, 03:09:04,VALID,1005.16,VALID,0,VALID,104,VALID,0,VALID,23.772,VALID,61,VALID,0.508203,
2012-12-28, 03:10:04,VALID,1005.13,VALID,0,VALID,104,VALID,0.112112,VALID,23.7312,VALID,57,VALID,0.649609,
2012-12-28, 03:11:04,VALID,1005.15,VALID,0,VALID,104,VALID,0,VALID,23.772,VALID,46,VALID,0.459375,
2012-12-28, 03:12:04,VALID,1005.13,VALID,0,VALID,104,VALID,0,VALID,23.772,VALID,46,VALID,0.409375,
2012-12-28, 03:13:04,VALID,1005.15,VALID,0,VALID,104,VALID,0,VALID,23.772,VALID,46,VALID,0.0832031,
2012-12-28, 03:14:04,VALID,1005.14,VALID,0,VALID,104,VALID,0,VALID,23.772,VALID,50,VALID,0.635938,
2012-12-28, 03:15:04,VALID,1005.14,VALID,0,VALID,104,VALID,0,VALID,23.7312,VALID,52,VALID,0.152344,
2012-12-28, 03:16:04,VALID,1005.17,VALID,0,VALID,104,VALID,0.112112,VALID,23.7507,VALID,52,VALID,0.482422,
2012-12-28, 03:17:04,VALID,1005.16,VALID,0,VALID,104,VALID,0.112112,VALID,23.7525,VALID,53,VALID,0.474609,
2012-12-28, 03:18:04,VALID,1005.15,VALID,0,VALID,104,VALID,0,VALID,23.772,VALID,54,VALID,0.563281,
2012-12-28, 03:19:04,VALID,1005.14,VALID,0,VALID,104,VALID,0,VALID,23.8304,VALID,66,VALID,0.611719,
2012-12-28, 03:20:04,VALID,1005.14,VALID,0,VALID,104,VALID,0,VALID,23.7914,VALID,95,VALID,1.09063,
2012-12-28, 03:21:04,VALID,1005.14,VALID,0,VALID,104,VALID,0,VALID,23.7525,VALID,114,VALID,0.748438,
2012-12-28, 03:22:04,VALID,1005.15,VALID,0,VALID,104,VALID,0,VALID,23.733,VALID,114,VALID,0.609375,
2012-12-28, 03:23:04,VALID,1005.16,VALID,0,VALID,104,VALID,0,VALID,23.733,VALID,98,VALID,1.00742,
2012-12-28, 03:24:04,VALID,1005.17,VALID,0,VALID,104,VALID,0,VALID,23.733,VALID,100,VALID,0.860937,
2012-12-28, 03:25:04,VALID,1005.21,VALID,0,VALID,104,VALID,0,VALID,23.694,VALID,80,VALID,1.26172,
2012-12-28, 03:26:04,VALID,1005.21,VALID,0,VALID,104,VALID,0,VALID,23.694,VALID,93,VALID,1.15117,
2012-12-28, 03:27:04,VALID,1005.21,VALID,0,VALID,104,VALID,0,VALID,23.6143,VALID,94,VALID,0.941406,
2012-12-28, 03:28:04,VALID,1005.22,VALID,0,VALID,104,VALID,0,VALID,23.6161,VALID,99,VALID,1.08633,
2012-12-28, 03:29:04,VALID,1005.23,VALID,0,VALID,104,VALID,0,VALID,23.6143,VALID,78,VALID,0.447656,
2012-12-28, 03:30:04,VALID,1005.27,VALID,0,VALID,104,VALID,0,VALID,23.5966,VALID,88,VALID,0.969531,
2012-12-28, 03:31:04,VALID,1005.29,VALID,0,VALID,104,VALID,0,VALID,23.5966,VALID,68,VALID,0.8875,
2012-12-28, 03:32:04,VALID,1005.3,VALID,0,VALID,104,VALID,0,VALID,23.5771,VALID,64,VALID,0.868359,
2012-12-28, 03:33:04,VALID,1005.28,VALID,0,VALID,104,VALID,0,VALID,23.5966,VALID,64,VALID,0.497266,
2012-12-28, 03:34:04,VALID,1005.28,VALID,0,VALID,104,VALID,0,VALID,23.5966,VALID,77,VALID,0.588672,
2012-12-28, 03:35:04,VALID,1005.3,VALID,0,VALID,104,VALID,0,VALID,23.5966,VALID,123,VALID,0.941797,
2012-12-28, 03:36:04,VALID,1005.31,VALID,0,VALID,104,VALID,0,VALID,23.6161,VALID,104,VALID,0.871875,
2012-12-28, 03:37:04,VALID,1005.33,VALID,0,VALID,104,VALID,0,VALID,23.5771,VALID,92,VALID,0.575391,
2012-12-28, 03:38:05,VALID,1005.33,VALID,0,VALID,104,VALID,0,VALID,23.6161,VALID,92,VALID,0.6625,
2012-12-28, 03:39:05,VALID,1005.31,VALID,0,VALID,104,VALID,0,VALID,23.5381,VALID,92,VALID,0.433594,
2012-12-28, 03:40:05,VALID,1005.34,VALID,0,VALID,104,VALID,0,VALID,23.5576,VALID,92,VALID,0.450781,
2012-12-28, 03:41:05,VALID,1005.33,VALID,0,VALID,104,VALID,0,VALID,23.5558,VALID,92,VALID,0.269531,
2012-12-28, 03:42:05,VALID,1005.29,VALID,0,VALID,104,VALID,0,VALID,23.5381,VALID,92,VALID,0.497656,
2012-12-28, 03:43:05,VALID,1005.28,VALID,0,VALID,104,VALID,0,VALID,23.5966,VALID,92,VALID,0.341797,
2012-12-28, 03:44:05,VALID,1005.28,VALID,0,VALID,104,VALID,0,VALID,23.5771,VALID,103,VALID,0.727734,
2012-12-28, 03:45:05,VALID,1005.28,VALID,0,VALID,104,VALID,0,VALID,23.5558,VALID,104,VALID,0.535156,
2012-12-28, 03:46:05,VALID,1005.28,VALID,0,VALID,104,VALID,0,VALID,23.5576,VALID,143,VALID,0.739062,
2012-12-28, 03:47:05,VALID,1005.24,VALID,0,VALID,104,VALID,0,VALID,23.5381,VALID,144,VALID,0.393359,
2012-12-28, 03:48:05,VALID,1005.24,VALID,0,VALID,104,VALID,0,VALID,23.4584,VALID,144,VALID,0.823047,
2012-12-28, 03:49:05,VALID,1005.26,VALID,0,VALID,104,VALID,0,VALID,23.5576,VALID,144,VALID,0.307422,
2012-12-28, 03:50:05,VALID,1005.23,VALID,0,VALID,104,VALID,0,VALID,23.4974,VALID,144,VALID,0.600391,
2012-12-28, 03:51:05,VALID,1005.25,VALID,0,VALID,104,VALID,0,VALID,23.5381,VALID,144,VALID,0.302734,
2012-12-28, 03:52:05,VALID,1005.21,VALID,0,VALID,104,VALID,0,VALID,23.5381,VALID,113,VALID,0.617188,
2012-12-28, 03:53:05,VALID,1005.21,VALID,0,VALID,104,VALID,0,VALID,23.4797,VALID,103,VALID,0.6375,